North Bend, OR

6:14 PM PST on February 11, 2016 (GMT -0800)
North Bend Municipal

Weather History for KOTH - December, 2012

Change the Weather History Date:

Monday, December 10, 2012

  Actual Average Record
Temperature  
Mean Temperature 50 °F 45 °F  
Max Temperature 54 °F 51 °F 66 °F (2014)
Min Temperature 45 °F 40 °F 17 °F (1932)
Degree Days  
Heating Degree Days 15 20  
Month to date heating degree days 149 193  
Since 1 July heating degree days 1435 1645  
Moisture  
Dew Point 48 °F    
Average Humidity 98    
Maximum Humidity 100    
Minimum Humidity 89    
Precipitation  
Precipitation 0.00 in 0.35 in 2.20 in (1968)
Month to date precipitation 2.84 3.72  
Year to date precipitation 46.34 57.50  
Sea Level Pressure  
Sea Level Pressure 30.35 in    
Wind  
Wind Speed 2 mph (East)    
Max Wind Speed 8 mph    
Max Gust Speed -    
Visibility 5 miles    
Events      
T = Trace of Precipitation, MM = Missing Value Source: NWS Daily Summary

Daily Weather History Graph

Daily Weather History Graph

Search for Another Location

Airport or City:

Trip Planner

Search our weather history database for the weather conditions in past years. The results will help you decide how hot, cold, wet, or windy it might be!

Date:

Astronomy

Dec. 10, 2012 Rise Set
Actual Time 7:39 AM PST 4:40 PM PST
Civil Twilight 7:06 AM PST 5:13 PM PST
Nautical Twilight 6:30 AM PST 5:49 PM PST
Astronomical Twilight 5:56 AM PST 6:24 PM PST
Moon 4:26 AM PST (12/10) 2:37 PM PST (12/10)
Length of Visible Light 10h 06m
Length of Day
9h 01m
Waning Crescent, 9% of the Moon is Illuminated
Dec 10
Waning Crescent
Dec 13
New
Dec 19
First Quarter
Dec 28
Full
Jan 4
Last Quarter

Hourly Weather History & Observations

Time (PST) Temp. Windchill Dew Point Humidity Pressure Visibility Wind Dir Wind Speed Gust Speed Precip Events Conditions
12:15 AM 46.4 °F - 46.4 °F 100% 30.41 in 9.0 mi Calm Calm - N/A   Unknown
12:55 AM 48.2 °F - 46.4 °F 93% 30.41 in 10.0 mi Calm Calm - N/A   Unknown
1:15 AM 48.2 °F - 48.2 °F 100% 30.42 in 9.0 mi North 3.5 mph - N/A   Unknown
1:35 AM 48.2 °F - 48.2 °F 100% 30.42 in 3.0 mi Calm Calm - N/A   Unknown
1:55 AM 48.2 °F - 46.4 °F 93% 30.42 in 3.0 mi Calm Calm - N/A   Unknown
2:15 AM 48.2 °F - 48.2 °F 100% 30.42 in 4.0 mi SSE 4.6 mph - N/A   Unknown
2:35 AM 46.4 °F 44.3 °F 46.4 °F 100% 30.42 in 1.8 mi SSE 4.6 mph - N/A   Unknown
2:55 AM 46.4 °F - 46.4 °F 100% 30.43 in 0.5 mi Calm Calm - N/A   Unknown
3:15 AM 46.4 °F 45.2 °F 46.4 °F 100% 30.42 in 0.5 mi SE 3.5 mph - N/A   Unknown
3:35 AM 46.4 °F 45.2 °F 46.4 °F 100% 30.41 in 0.5 mi ESE 3.5 mph - N/A   Unknown
3:55 AM 46.4 °F 45.2 °F 46.4 °F 100% 30.41 in 0.2 mi ESE 3.5 mph - N/A   Unknown
4:15 AM 46.4 °F 45.2 °F 46.4 °F 100% 30.40 in 0.2 mi SE 3.5 mph - N/A   Unknown
4:35 AM 46.4 °F - 46.4 °F 100% 30.40 in 0.2 mi Calm Calm - N/A   Unknown
4:55 AM 46.4 °F - 46.4 °F 100% 30.41 in 0.5 mi Calm Calm - N/A   Unknown
5:15 AM 46.4 °F - 46.4 °F 100% 30.41 in 0.5 mi Calm Calm - N/A   Unknown
5:35 AM 46.4 °F 45.2 °F 46.4 °F 100% 30.41 in 0.5 mi NE 3.5 mph - N/A   Unknown
5:55 AM 46.4 °F - 46.4 °F 100% 30.42 in 0.8 mi Calm Calm - N/A   Unknown
6:15 AM 46.4 °F - 46.4 °F 100% 30.42 in 0.8 mi Calm Calm - N/A   Unknown
6:35 AM 48.2 °F - 48.2 °F 100% 30.43 in 2.5 mi NE 5.8 mph - N/A   Unknown
6:55 AM 48.2 °F - 48.2 °F 100% 30.42 in 10.0 mi Calm Calm - N/A   Unknown
7:15 AM 46.4 °F 45.2 °F 46.4 °F 100% 30.42 in 6.0 mi SE 3.5 mph - N/A   Scattered Clouds
7:35 AM 46.4 °F 45.2 °F 46.4 °F 100% 30.43 in 2.5 mi SE 3.5 mph - N/A   Scattered Clouds
7:55 AM 44.6 °F 43.1 °F 44.6 °F 100% 30.43 in 5.0 mi SE 3.5 mph - N/A   Scattered Clouds
8:15 AM 44.6 °F 43.1 °F 44.6 °F 100% 30.42 in 5.0 mi South 3.5 mph - N/A   Scattered Clouds
8:35 AM 44.6 °F - 44.6 °F 100% 30.43 in 5.0 mi Calm Calm - N/A   Scattered Clouds
8:55 AM 48.2 °F - 46.4 °F 93% 30.43 in 5.0 mi Calm Calm - N/A   Scattered Clouds
9:15 AM 48.2 °F - 48.2 °F 100% 30.44 in 5.0 mi Calm Calm - N/A   Scattered Clouds
9:35 AM 48.2 °F - 48.2 °F 100% 30.44 in 5.0 mi Calm Calm - N/A   Mostly Cloudy
9:55 AM 48.2 °F - 48.2 °F 100% 30.43 in 2.5 mi NW 3.5 mph - N/A   Overcast
10:15 AM 48.2 °F - 48.2 °F 100% 30.44 in 2.5 mi Calm Calm - N/A   Overcast
10:35 AM 48.2 °F - 48.2 °F 100% 30.43 in 3.0 mi Calm Calm - N/A   Mostly Cloudy
10:55 AM 50.0 °F - 50.0 °F 100% 30.42 in 3.0 mi Calm Calm - N/A   Mostly Cloudy
11:15 AM 51.8 °F - 50.0 °F 94% 30.42 in 3.0 mi Calm Calm - N/A   Mostly Cloudy
11:35 AM 53.6 °F - 51.8 °F 94% 30.41 in 3.0 mi Calm Calm - N/A   Mostly Cloudy
11:55 AM 51.8 °F - 50.0 °F 94% 30.41 in 3.0 mi Calm Calm - N/A   Mostly Cloudy
12:15 PM 51.8 °F - 50.0 °F 94% 30.40 in 10.0 mi Calm Calm - N/A   Mostly Cloudy
12:35 PM 53.6 °F - 51.8 °F 94% 30.39 in 10.0 mi NE 4.6 mph - N/A   Overcast
12:55 PM 53.6 °F - 50.0 °F 88% 30.37 in 10.0 mi Calm Calm - N/A   Overcast
1:15 PM 53.6 °F - 50.0 °F 88% 30.36 in 10.0 mi Calm Calm - N/A   Overcast
1:35 PM 53.6 °F - 51.8 °F 94% 30.35 in 10.0 mi Calm Calm - N/A   Overcast
1:55 PM 53.6 °F - 51.8 °F 94% 30.34 in 10.0 mi Calm Calm - N/A   Overcast
2:15 PM 53.6 °F - 51.8 °F 94% 30.34 in 10.0 mi Calm Calm - N/A   Overcast
2:35 PM 53.6 °F - 51.8 °F 94% 30.34 in 10.0 mi NNW 6.9 mph - N/A   Overcast
2:55 PM 51.8 °F - 51.8 °F 100% 30.34 in 10.0 mi NNW 8.1 mph - N/A   Overcast
3:15 PM 51.8 °F - 50.0 °F 94% 30.33 in 10.0 mi North 6.9 mph - N/A   Overcast
3:35 PM 51.8 °F - 51.8 °F 100% 30.33 in 10.0 mi NNW 5.8 mph - N/A   Overcast
3:55 PM 51.8 °F - 51.8 °F 100% 30.33 in 10.0 mi NNW 6.9 mph - N/A   Overcast
4:15 PM 51.8 °F - 51.8 °F 100% 30.32 in 10.0 mi NNW 5.8 mph - N/A   Overcast
4:35 PM 51.8 °F - 50.0 °F 94% 30.32 in 10.0 mi NNW 6.9 mph - N/A   Overcast
5:15 PM 51.8 °F - 50.0 °F 94% 30.31 in 10.0 mi NNW 4.6 mph - N/A   Unknown
5:35 PM 51.8 °F - 50.0 °F 94% 30.30 in 10.0 mi NNW 4.6 mph - N/A   Mostly Cloudy
5:55 PM 51.8 °F - 50.0 °F 94% 30.28 in 10.0 mi NNE 3.5 mph - N/A   Mostly Cloudy
6:15 PM 50.0 °F - 50.0 °F 100% 30.28 in 10.0 mi Calm Calm - N/A   Mostly Cloudy
6:35 PM 48.2 °F - 48.2 °F 100% 30.28 in 10.0 mi Calm Calm - N/A   Overcast
6:55 PM 46.4 °F - 46.4 °F 100% 30.28 in 6.0 mi Calm Calm - N/A   Overcast
7:15 PM 48.2 °F - 48.2 °F 100% 30.27 in 3.0 mi Calm Calm - N/A   Mostly Cloudy
7:35 PM 44.6 °F - 44.6 °F 100% 30.27 in 0.5 mi Calm Calm - N/A   Mostly Cloudy
7:55 PM 44.6 °F - 44.6 °F 100% 30.26 in 0.5 mi Calm Calm - N/A   Mostly Cloudy
8:15 PM 46.4 °F 45.2 °F 46.4 °F 100% 30.25 in 7.0 mi South 3.5 mph - N/A   Mostly Cloudy
8:35 PM 44.6 °F 43.1 °F 42.8 °F 93% 30.24 in 0.8 mi SE 3.5 mph - N/A   Mostly Cloudy
8:55 PM 44.6 °F 43.1 °F 44.6 °F 100% 30.23 in 0.5 mi South 3.5 mph - N/A   Mostly Cloudy
9:15 PM 44.6 °F 43.1 °F 44.6 °F 100% 30.22 in 0.2 mi SSE 3.5 mph - N/A   Unknown
9:35 PM 44.6 °F - 44.6 °F 100% 30.22 in 0.2 mi Calm Calm - N/A   Unknown
9:55 PM 44.6 °F - 44.6 °F 100% 30.21 in 0.2 mi Calm Calm - N/A   Unknown
10:15 PM 46.4 °F - 46.4 °F 100% 30.21 in 0.2 mi Calm Calm - N/A   Unknown
10:35 PM 46.4 °F 45.2 °F 44.6 °F 93% 30.19 in 8.0 mi SE 3.5 mph - N/A   Unknown
10:55 PM 44.6 °F 41.4 °F 44.6 °F 100% 30.18 in 4.0 mi SE 5.8 mph - N/A   Unknown
11:15 PM 44.6 °F 43.1 °F 44.6 °F 100% 30.18 in 10.0 mi SE 3.5 mph - N/A   Unknown
11:35 PM 44.6 °F - 44.6 °F 100% 30.17 in 10.0 mi Calm Calm - N/A   Unknown
11:55 PM 44.6 °F - 44.6 °F 100% 30.16 in 2.5 mi Calm Calm - N/A   Unknown